Station Historical Data
Daily Summary for December 07, 2017 Units:  English    Metric   Both
« Previous Day
Next Day »
Daily Weekly Monthly Yearly Custom
  High: Low: Average:
Temperature: 33.8 °F 26.5 °F 31.4 °F
Dew Point: 24.0 °F 14.1 °F 20.6 °F
Humidity: 73% 56% 64%
Wind Speed: 17.0mph 0.0mph 5.7mph
Wind Gust: 19.0mph - -
Wind- - West
Pressure: 30.01 in 29.90 in -
Precipitation: 0.01 in    
Historical Graphs
 
 
Tabular Data for December 07, 2017
Time Temperature Dew Point Pressure Wind Wind Speed Wind Gust Humidity Rainfall Rate (Hourly)
00:00 33.8 °F 21.8 °F 29.91 in SW 7.0 mph 16.0 mph 61% 0.00 in
00:05 33.8 °F 21.8 °F 29.91 in NW 10.0 mph 14.0 mph 61% 0.00 in
00:10 33.8 °F 21.8 °F 29.91 in West 7.0 mph 15.0 mph 61% 0.00 in
00:15 33.8 °F 21.8 °F 29.91 in SW 10.0 mph 12.0 mph 61% 0.00 in
00:20 33.8 °F 21.8 °F 29.91 in West 5.0 mph 17.0 mph 61% 0.00 in
00:25 33.8 °F 21.8 °F 29.91 in West 8.0 mph 17.0 mph 61% 0.00 in
00:30 33.8 °F 22.1 °F 29.91 in West 7.0 mph 14.0 mph 62% 0.00 in
00:35 33.7 °F 22.1 °F 29.90 in West 7.0 mph 14.0 mph 62% 0.00 in
00:40 33.7 °F 21.7 °F 29.91 in West 7.0 mph 14.0 mph 61% 0.00 in
00:45 33.7 °F 21.7 °F 29.91 in West 6.0 mph 12.0 mph 61% 0.00 in
00:50 33.7 °F 21.7 °F 29.91 in West 9.0 mph 15.0 mph 61% 0.00 in
00:55 33.7 °F 21.7 °F 29.91 in WSW 3.0 mph 13.0 mph 61% 0.00 in
01:00 33.6 °F 21.6 °F 29.91 in West 6.0 mph 13.0 mph 61% 0.00 in
01:05 33.6 °F 21.6 °F 29.91 in WSW 9.0 mph 14.0 mph 61% 0.00 in
01:10 33.5 °F 21.9 °F 29.91 in West 7.0 mph 11.0 mph 62% 0.00 in
01:15 33.4 °F 21.8 °F 29.91 in WSW 6.0 mph 13.0 mph 62% 0.00 in
01:20 33.4 °F 21.8 °F 29.92 in WSW 5.0 mph 16.0 mph 62% 0.00 in
01:25 33.4 °F 21.8 °F 29.91 in West 5.0 mph 13.0 mph 62% 0.00 in
01:30 33.4 °F 21.8 °F 29.92 in WSW 6.0 mph 15.0 mph 62% 0.00 in
01:35 33.4 °F 21.8 °F 29.92 in West 7.0 mph 18.0 mph 62% 0.00 in
01:40 33.3 °F 21.7 °F 29.92 in West 7.0 mph 18.0 mph 62% 0.00 in
01:45 33.3 °F 21.7 °F 29.92 in West 6.0 mph 15.0 mph 62% 0.00 in
01:50 33.2 °F 22.0 °F 29.92 in West 5.0 mph 12.0 mph 63% 0.00 in
01:55 33.2 °F 22.0 °F 29.92 in West 6.0 mph 15.0 mph 63% 0.00 in
02:00 33.1 °F 21.9 °F 29.92 in NW 5.0 mph 16.0 mph 63% 0.00 in
02:05 33.1 °F 21.9 °F 29.92 in West 8.0 mph 16.0 mph 63% 0.00 in
02:10 33.0 °F 21.8 °F 29.93 in West 8.0 mph 16.0 mph 63% 0.00 in
02:15 33.0 °F 21.8 °F 29.93 in West 8.0 mph 16.0 mph 63% 0.00 in
02:20 33.0 °F 22.1 °F 29.93 in West 9.0 mph 14.0 mph 64% 0.00 in
02:25 33.0 °F 22.1 °F 29.93 in NW 6.0 mph 14.0 mph 64% 0.00 in
02:30 32.9 °F 22.0 °F 29.93 in West 11.0 mph 15.0 mph 64% 0.00 in
02:35 32.8 °F 22.0 °F 29.93 in WSW 10.0 mph 12.0 mph 64% 0.00 in
02:40 32.8 °F 22.0 °F 29.93 in West 7.0 mph 13.0 mph 64% 0.00 in
02:45 32.8 °F 22.0 °F 29.93 in West 6.0 mph 13.0 mph 64% 0.00 in
02:50 32.7 °F 21.9 °F 29.93 in West 7.0 mph 16.0 mph 64% 0.00 in
02:55 32.7 °F 21.9 °F 29.93 in West 10.0 mph 16.0 mph 64% 0.00 in
03:00 32.6 °F 21.8 °F 29.93 in West 8.0 mph 16.0 mph 64% 0.00 in
03:05 32.6 °F 21.8 °F 29.93 in West 8.0 mph 15.0 mph 64% 0.00 in
03:10 32.6 °F 21.8 °F 29.93 in WNW 4.0 mph 13.0 mph 64% 0.00 in
03:15 32.6 °F 21.8 °F 29.93 in West 7.0 mph 13.0 mph 64% 0.00 in
03:20 32.6 °F 21.8 °F 29.93 in West 6.0 mph 9.0 mph 64% 0.00 in
03:25 32.5 °F 21.7 °F 29.93 in WSW 6.0 mph 13.0 mph 64% 0.00 in
03:30 32.5 °F 21.7 °F 29.93 in West 4.0 mph 9.0 mph 64% 0.00 in
03:35 32.5 °F 22.0 °F 29.93 in West 6.0 mph 9.0 mph 65% 0.00 in
03:40 32.4 °F 21.6 °F 29.93 in West 5.0 mph 11.0 mph 64% 0.00 in
03:45 32.4 °F 21.9 °F 29.93 in West 5.0 mph 10.0 mph 65% 0.00 in
03:50 32.4 °F 21.9 °F 29.93 in West 5.0 mph 10.0 mph 65% 0.00 in
03:55 32.4 °F 21.9 °F 29.93 in West 5.0 mph 11.0 mph 65% 0.00 in
04:00 32.4 °F 21.9 °F 29.93 in West 5.0 mph 11.0 mph 65% 0.00 in
04:05 32.3 °F 21.8 °F 29.93 in West 6.0 mph 12.0 mph 65% 0.00 in
04:10 32.4 °F 21.9 °F 29.93 in West 3.0 mph 7.0 mph 65% 0.00 in
04:15 32.4 °F 21.6 °F 29.93 in WNW 5.0 mph 10.0 mph 64% 0.00 in
04:20 32.4 °F 21.9 °F 29.93 in WNW 8.0 mph 11.0 mph 65% 0.00 in
04:25 32.4 °F 21.6 °F 29.92 in West 6.0 mph 11.0 mph 64% 0.00 in
04:30 32.4 °F 21.6 °F 29.92 in WNW 3.0 mph 8.0 mph 64% 0.00 in
04:40 32.4 °F 21.9 °F 29.92 in WNW 5.0 mph 9.0 mph 65% 0.00 in
04:45 32.3 °F 21.8 °F 29.92 in West 4.0 mph 9.0 mph 65% 0.00 in
04:50 32.3 °F 21.8 °F 29.92 in West 2.0 mph 7.0 mph 65% 0.00 in
04:55 32.3 °F 21.8 °F 29.92 in West 4.0 mph 10.0 mph 65% 0.00 in
05:00 32.3 °F 21.8 °F 29.92 in West 4.0 mph 10.0 mph 65% 0.00 in
05:05 32.3 °F 21.8 °F 29.92 in West 2.0 mph 10.0 mph 65% 0.00 in
05:10 32.3 °F 21.8 °F 29.92 in West 4.0 mph 10.0 mph 65% 0.00 in
05:15 32.3 °F 21.8 °F 29.92 in West 4.0 mph 9.0 mph 65% 0.00 in
05:20 32.2 °F 22.1 °F 29.92 in West 2.0 mph 7.0 mph 66% 0.00 in
05:25 32.2 °F 22.1 °F 29.92 in West 4.0 mph 11.0 mph 66% 0.00 in
05:30 32.2 °F 21.7 °F 29.92 in West 7.0 mph 11.0 mph 65% 0.00 in
05:35 32.2 °F 22.1 °F 29.92 in WSW 3.0 mph 12.0 mph 66% 0.00 in
05:40 32.2 °F 22.1 °F 29.92 in West 3.0 mph 10.0 mph 66% 0.00 in
05:45 32.1 °F 22.0 °F 29.92 in West 5.0 mph 9.0 mph 66% 0.00 in
05:50 32.2 °F 22.1 °F 29.92 in West 3.0 mph 11.0 mph 66% 0.00 in
05:55 32.1 °F 22.0 °F 29.92 in West 8.0 mph 9.0 mph 66% 0.00 in
06:00 32.1 °F 22.0 °F 29.92 in WNW 5.0 mph 10.0 mph 66% 0.00 in
06:05 32.1 °F 22.0 °F 29.92 in NW 2.0 mph 9.0 mph 66% 0.00 in
06:10 32.1 °F 22.0 °F 29.92 in WNW 5.0 mph 9.0 mph 66% 0.00 in
06:15 32.1 °F 22.4 °F 29.92 in WNW 5.0 mph 13.0 mph 67% 0.00 in
06:20 32.2 °F 22.5 °F 29.92 in WNW 5.0 mph 13.0 mph 67% 0.00 in
06:25 32.1 °F 22.4 °F 29.92 in West 7.0 mph 11.0 mph 67% 0.00 in
06:30 32.1 °F 22.4 °F 29.92 in West 4.0 mph 9.0 mph 67% 0.00 in
06:35 32.1 °F 22.4 °F 29.92 in West 4.0 mph 9.0 mph 67% 0.00 in
06:40 32.1 °F 22.0 °F 29.92 in West 5.0 mph 10.0 mph 66% 0.00 in
06:45 32.2 °F 22.5 °F 29.92 in West 5.0 mph 11.0 mph 67% 0.00 in
06:50 32.2 °F 22.1 °F 29.92 in WNW 5.0 mph 11.0 mph 66% 0.00 in
06:55 32.1 °F 22.4 °F 29.92 in NW 5.0 mph 13.0 mph 67% 0.00 in
07:00 32.2 °F 22.5 °F 29.92 in West 4.0 mph 9.0 mph 67% 0.00 in
07:05 32.1 °F 22.0 °F 29.92 in WNW 2.0 mph 8.0 mph 66% 0.00 in
07:10 32.1 °F 22.4 °F 29.92 in West 4.0 mph 8.0 mph 67% 0.00 in
07:15 32.1 °F 22.4 °F 29.92 in West 4.0 mph 10.0 mph 67% 0.00 in
07:20 32.1 °F 22.4 °F 29.92 in WSW 3.0 mph 7.0 mph 67% 0.00 in
07:25 32.2 °F 22.5 °F 29.92 in West 3.0 mph 7.0 mph 67% 0.00 in
07:30 32.1 °F 22.4 °F 29.93 in WSW 4.0 mph 7.0 mph 67% 0.00 in
07:35 32.1 °F 22.0 °F 29.93 in SW 6.0 mph 8.0 mph 66% 0.00 in
07:40 32.1 °F 22.4 °F 29.93 in SW 4.0 mph 8.0 mph 67% 0.00 in
07:45 32.2 °F 22.5 °F 29.93 in SW 2.0 mph 8.0 mph 67% 0.00 in
07:50 32.1 °F 22.4 °F 29.93 in SSW 3.0 mph 6.0 mph 67% 0.00 in
08:00 32.1 °F 22.7 °F 29.93 in SSW 3.0 mph 9.0 mph 68% 0.00 in
08:05 32.1 °F 22.4 °F 29.93 in WSW 2.0 mph 6.0 mph 67% 0.00 in
08:15 32.1 °F 22.4 °F 29.93 in SW 3.0 mph 9.0 mph 67% 0.00 in
08:20 32.1 °F 22.4 °F 29.94 in SW 4.0 mph 9.0 mph 67% 0.00 in
08:30 32.2 °F 22.8 °F 29.94 in WSW 2.0 mph 8.0 mph 68% 0.00 in
08:35 32.3 °F 22.6 °F 29.94 in WSW 4.0 mph 10.0 mph 67% 0.00 in
08:40 32.4 °F 22.7 °F 29.94 in WNW 5.0 mph 9.0 mph 67% 0.00 in
08:45 32.4 °F 22.7 °F 29.94 in WSW 3.0 mph 9.0 mph 67% 0.00 in
08:55 32.4 °F 22.7 °F 29.94 in WSW 4.0 mph 9.0 mph 67% 0.00 in
09:00 32.3 °F 22.6 °F 29.95 in WSW 3.0 mph 7.0 mph 67% 0.00 in
09:10 32.2 °F 22.8 °F 29.95 in Calm   4.0 mph 68% 0.00 in
09:15 32.2 °F 22.8 °F 29.95 in WSW 1.0 mph 6.0 mph 68% 0.00 in
09:20 32.2 °F 22.8 °F 29.95 in WSW 3.0 mph 6.0 mph 68% 0.00 in
09:30 32.2 °F 23.2 °F 29.95 in West 3.0 mph 9.0 mph 69% 0.00 in
09:35 32.1 °F 23.1 °F 29.95 in West 4.0 mph 8.0 mph 69% 0.00 in
09:40 32.0 °F 23.3 °F 29.96 in WSW 5.0 mph 9.0 mph 70% 0.00 in
09:45 32.0 °F 23.3 °F 29.96 in SSW 4.0 mph 10.0 mph 70% 0.00 in
09:50 31.9 °F 23.6 °F 29.95 in SW 4.0 mph 8.0 mph 71% 0.00 in
09:55 31.9 °F 23.6 °F 29.95 in WSW 5.0 mph 8.0 mph 71% 0.00 in
10:05 31.9 °F 23.9 °F 29.95 in WSW 4.0 mph 8.0 mph 72% 0.00 in
10:10 31.9 °F 23.9 °F 29.95 in WSW 4.0 mph 8.0 mph 72% 0.00 in
10:20 31.8 °F 23.8 °F 29.96 in WSW 7.0 mph 10.0 mph 72% 0.00 in
10:25 31.8 °F 23.8 °F 29.96 in West 6.0 mph 10.0 mph 72% 0.00 in
10:30 31.7 °F 23.7 °F 29.96 in WSW 5.0 mph 10.0 mph 72% 0.00 in
10:45 31.7 °F 24.0 °F 29.96 in West 4.0 mph 9.0 mph 73% 0.00 in
10:55 31.8 °F 23.8 °F 29.96 in NW 3.0 mph 7.0 mph 72% 0.00 in
11:00 32.0 °F 24.0 °F 29.96 in West 5.0 mph 7.0 mph 72% 0.00 in
11:05 31.9 °F 23.9 °F 29.95 in WSW 5.0 mph 11.0 mph 72% 0.00 in
11:10 31.9 °F 23.6 °F 29.95 in WSW 6.0 mph 13.0 mph 71% 0.00 in
11:15 31.8 °F 23.8 °F 29.95 in SW 3.0 mph 10.0 mph 72% 0.00 in
11:20 31.7 °F 23.4 °F 29.95 in WSW 5.0 mph 10.0 mph 71% 0.00 in
11:25 31.8 °F 23.5 °F 29.95 in WSW 5.0 mph 12.0 mph 71% 0.00 in
11:30 31.9 °F 23.6 °F 29.95 in West 3.0 mph 9.0 mph 71% 0.00 in
11:35 32.0 °F 23.7 °F 29.94 in Calm   9.0 mph 71% 0.00 in
11:40 32.2 °F 23.5 °F 29.94 in West 4.0 mph 10.0 mph 70% 0.00 in
11:45 32.3 °F 23.9 °F 29.94 in West 2.0 mph 7.0 mph 71% 0.00 in
11:50 32.3 °F 23.6 °F 29.93 in West 5.0 mph 11.0 mph 70% 0.01 in
11:55 32.2 °F 23.5 °F 29.93 in WNW 8.0 mph 10.0 mph 70% 0.01 in
12:05 32.2 °F 23.5 °F 29.93 in West 6.0 mph 9.0 mph 70% 0.01 in
12:10 32.3 °F 23.6 °F 29.93 in SW 3.0 mph 7.0 mph 70% 0.01 in
12:15 32.2 °F 23.5 °F 29.93 in West 4.0 mph 14.0 mph 70% 0.01 in
12:20 32.1 °F 23.4 °F 29.93 in WSW 5.0 mph 14.0 mph 70% 0.01 in
12:25 32.1 °F 23.1 °F 29.92 in WSW 6.0 mph 11.0 mph 69% 0.01 in
12:30 32.3 °F 23.3 °F 29.92 in West 6.0 mph 11.0 mph 69% 0.01 in
12:35 32.3 °F 23.6 °F 29.92 in West 5.0 mph 10.0 mph 70% 0.01 in
12:40 32.3 °F 23.3 °F 29.92 in West 6.0 mph 11.0 mph 69% 0.01 in
12:45 32.4 °F 23.4 °F 29.92 in WNW 4.0 mph 11.0 mph 69% 0.01 in
12:55 32.4 °F 23.0 °F 29.91 in West 6.0 mph 13.0 mph 68% 0.00 in
13:05 32.6 °F 22.8 °F 29.91 in WSW 6.0 mph 15.0 mph 67% 0.00 in
13:10 33.0 °F 22.5 °F 29.91 in West 7.0 mph 14.0 mph 65% 0.00 in
13:15 33.2 °F 22.3 °F 29.91 in West 8.0 mph 13.0 mph 64% 0.00 in
13:20 32.9 °F 22.0 °F 29.91 in West 6.0 mph 15.0 mph 64% 0.00 in
13:25 32.9 °F 21.7 °F 29.91 in West 7.0 mph 15.0 mph 63% 0.00 in
13:30 33.0 °F 22.1 °F 29.91 in West 6.0 mph 13.0 mph 64% 0.00 in
13:35 33.0 °F 22.5 °F 29.91 in West 3.0 mph 10.0 mph 65% 0.00 in
13:40 32.7 °F 22.2 °F 29.91 in West 4.0 mph 9.0 mph 65% 0.00 in
13:50 32.8 °F 21.6 °F 29.91 in West 5.0 mph 14.0 mph 63% 0.00 in
14:00 32.5 °F 21.3 °F 29.91 in West 6.0 mph 15.0 mph 63% 0.00 in
14:05 32.3 °F 21.5 °F 29.91 in WNW 7.0 mph 13.0 mph 64% 0.00 in
14:10 32.3 °F 21.5 °F 29.91 in WNW 12.0 mph 12.0 mph 64% 0.00 in
14:25 33.0 °F 20.2 °F 29.90 in West 9.0 mph 14.0 mph 59% 0.00 in
14:40 32.5 °F 20.1 °F 29.91 in West 7.0 mph 15.0 mph 60% 0.00 in
14:45 32.3 °F 19.6 °F 29.91 in West 7.0 mph 14.0 mph 59% 0.00 in
14:50 32.2 °F 19.5 °F 29.91 in WSW 5.0 mph 12.0 mph 59% 0.00 in
14:55 32.1 °F 19.0 °F 29.91 in NW 8.0 mph 19.0 mph 58% 0.00 in
15:00 31.8 °F 18.7 °F 29.91 in West 8.0 mph 19.0 mph 58% 0.00 in
15:05 31.7 °F 19.0 °F 29.92 in West 9.0 mph 18.0 mph 59% 0.00 in
15:10 31.6 °F 18.9 °F 29.92 in West 8.0 mph 18.0 mph 59% 0.00 in
15:15 31.5 °F 18.8 °F 29.92 in West 7.0 mph 10.0 mph 59% 0.00 in
15:20 31.4 °F 19.1 °F 29.92 in WNW 7.0 mph 11.0 mph 60% 0.00 in
15:25 31.4 °F 19.1 °F 29.92 in WNW 3.0 mph 9.0 mph 60% 0.00 in
15:35 31.4 °F 19.1 °F 29.92 in West 8.0 mph 11.0 mph 60% 0.00 in
15:50 31.4 °F 18.7 °F 29.93 in West 5.0 mph 16.0 mph 59% 0.00 in
15:55 31.3 °F 19.0 °F 29.93 in West 7.0 mph 16.0 mph 60% 0.00 in
16:00 31.2 °F 18.5 °F 29.93 in WNW 11.0 mph 17.0 mph 59% 0.00 in
16:05 31.1 °F 18.8 °F 29.93 in SW 3.0 mph 12.0 mph 60% 0.00 in
16:10 31.1 °F 18.4 °F 29.93 in West 8.0 mph 17.0 mph 59% 0.00 in
16:15 31.0 °F 18.3 °F 29.93 in West 8.0 mph 17.0 mph 59% 0.00 in
16:20 30.9 °F 18.6 °F 29.93 in West 8.0 mph 16.0 mph 60% 0.00 in
16:25 30.7 °F 18.8 °F 29.93 in WNW 8.0 mph 16.0 mph 61% 0.00 in
16:30 30.6 °F 18.7 °F 29.93 in West 3.0 mph 13.0 mph 61% 0.00 in
16:35 30.6 °F 18.7 °F 29.93 in West 5.0 mph 13.0 mph 61% 0.00 in
16:40 30.4 °F 18.5 °F 29.93 in SW 2.0 mph 12.0 mph 61% 0.00 in
16:45 30.4 °F 18.9 °F 29.93 in West 7.0 mph 14.0 mph 62% 0.00 in
16:50 30.3 °F 18.5 °F 29.93 in West 6.0 mph 15.0 mph 61% 0.00 in
16:55 30.2 °F 18.4 °F 29.93 in WSW 2.0 mph 14.0 mph 61% 0.00 in
17:00 30.1 °F 18.3 °F 29.94 in WSW 6.0 mph 14.0 mph 61% 0.00 in
17:05 30.1 °F 18.3 °F 29.94 in West 6.0 mph 13.0 mph 61% 0.00 in
17:15 30.1 °F 18.3 °F 29.94 in WNW 11.0 mph 11.0 mph 61% 0.00 in
17:20 30.1 °F 17.9 °F 29.94 in West 7.0 mph 18.0 mph 60% 0.00 in
17:25 30.0 °F 17.8 °F 29.95 in West 8.0 mph 18.0 mph 60% 0.00 in
17:30 29.9 °F 17.7 °F 29.95 in West 8.0 mph 16.0 mph 60% 0.00 in
17:40 29.7 °F 17.5 °F 29.95 in West 7.0 mph 16.0 mph 60% 0.00 in
17:45 29.7 °F 17.5 °F 29.95 in WNW 8.0 mph 15.0 mph 60% 0.00 in
17:55 29.5 °F 18.1 °F 29.95 in WSW 6.0 mph 9.0 mph 62% 0.00 in
19:55 27.6 °F 17.0 °F 30.00 in West 4.0 mph 12.0 mph 64% 0.00 in
20:00 27.6 °F 17.0 °F 30.00 in West 4.0 mph 13.0 mph 64% 0.00 in
20:05 27.4 °F 16.8 °F 30.00 in West 10.0 mph 14.0 mph 64% 0.00 in
20:10 27.3 °F 17.1 °F 30.00 in WSW 10.0 mph 14.0 mph 65% 0.00 in
20:15 27.2 °F 17.0 °F 30.00 in West 7.0 mph 14.0 mph 65% 0.00 in
20:35 26.8 °F 17.0 °F 30.00 in West 8.0 mph 13.0 mph 66% 0.00 in
20:40 26.8 °F 17.0 °F 30.00 in WNW 8.0 mph 12.0 mph 66% 0.00 in
20:45 26.8 °F 16.6 °F 30.00 in WNW 17.0 mph 17.0 mph 65% 0.00 in
20:50 26.7 °F 16.9 °F 30.00 in West 6.0 mph 17.0 mph 66% 0.00 in
21:05 26.6 °F 16.4 °F 30.01 in WSW 4.0 mph 12.0 mph 65% 0.00 in
21:10 26.6 °F 16.4 °F 30.01 in West 7.0 mph 14.0 mph 65% 0.00 in
21:15 26.5 °F 16.3 °F 30.01 in West 9.0 mph 12.0 mph 65% 0.00 in
21:20 26.5 °F 16.3 °F 30.01 in WNW 5.0 mph 13.0 mph 65% 0.00 in
21:25 26.5 °F 16.3 °F 30.01 in WNW 7.0 mph 14.0 mph 65% 0.00 in
21:30 26.5 °F 16.0 °F 30.01 in WNW 7.0 mph 14.0 mph 64% 0.00 in
21:35 26.5 °F 16.0 °F 30.01 in WNW 6.0 mph 12.0 mph 64% 0.00 in
21:40 26.5 °F 16.0 °F 30.01 in West 6.0 mph 11.0 mph 64% 0.00 in
21:45 26.7 °F 15.8 °F 30.01 in West 6.0 mph 13.0 mph 63% 0.00 in
21:50 27.0 °F 15.7 °F 30.01 in West 5.0 mph 9.0 mph 62% 0.00 in
21:55 27.3 °F 15.2 °F 30.01 in WNW 8.0 mph 15.0 mph 60% 0.00 in
22:00 27.4 °F 15.3 °F 30.00 in West 7.0 mph 15.0 mph 60% 0.00 in
22:05 27.4 °F 14.9 °F 30.00 in West 6.0 mph 12.0 mph 59% 0.00 in
22:10 27.4 °F 14.9 °F 30.00 in West 8.0 mph 14.0 mph 59% 0.00 in
22:15 27.3 °F 14.8 °F 30.01 in West 10.0 mph 10.0 mph 59% 0.00 in
22:25 27.4 °F 14.9 °F 30.00 in West 5.0 mph 13.0 mph 59% 0.00 in
22:30 27.4 °F 14.9 °F 30.00 in West 11.0 mph 12.0 mph 59% 0.00 in
22:40 27.2 °F 14.4 °F 30.00 in West 7.0 mph 15.0 mph 58% 0.00 in
22:50 27.3 °F 14.5 °F 30.00 in West 7.0 mph 13.0 mph 58% 0.00 in
22:55 27.5 °F 14.2 °F 29.99 in West 7.0 mph 14.0 mph 57% 0.00 in
23:00 27.6 °F 14.3 °F 30.00 in West 6.0 mph 12.0 mph 57% 0.00 in
23:05 27.6 °F 14.3 °F 30.00 in West 3.0 mph 11.0 mph 57% 0.00 in
23:15 27.8 °F 14.1 °F 30.00 in WNW 9.0 mph 13.0 mph 56% 0.00 in
23:25 27.9 °F 14.2 °F 30.00 in West 8.0 mph 12.0 mph 56% 0.00 in
23:30 28.0 °F 14.3 °F 30.00 in West 8.0 mph 10.0 mph 56% 0.00 in
23:35 28.1 °F 14.4 °F 29.99 in West 2.0 mph 10.0 mph 56% 0.00 in
23:40 28.0 °F 14.3 °F 29.99 in West 5.0 mph 11.0 mph 56% 0.00 in
23:45 28.1 °F 14.4 °F 29.99 in West 4.0 mph 11.0 mph 56% 0.00 in
23:50 28.1 °F 14.4 °F 29.99 in West 5.0 mph 10.0 mph 56% 0.00 in
23:55 28.2 °F 14.5 °F 29.99 in West 5.0 mph 10.0 mph 56% 0.00 in
Buffalo, New York, USA
Compliments of Weather Underground - 2 mb